Moscow Sheremetyevo, Russia

5:30 AM MSK on June 18, 2018 (GMT +0300)
Sheremetyevo

Weather History for UUEE - November, 2017

Change the Weather History Date:

Wednesday, November 15, 2017

  Actual Average Record
Temperature  
Mean Temperature 32 °F -  
Max Temperature 33 °F 32 °F 53 °F (2010)
Min Temperature 32 °F 23 °F 1 °F (1998)
Degree Days  
Heating Degree Days 32    
Moisture  
Dew Point 32 °F    
Average Humidity 93    
Maximum Humidity 100    
Minimum Humidity 87    
Precipitation  
Precipitation 0.00 in - - ()
Sea Level Pressure  
Sea Level Pressure 30.03 in    
Wind  
Wind Speed 10 mph ()    
Max Wind Speed 13 mph    
Max Gust Speed 22 mph    
Visibility 5.5 miles    
Events Snow    
Averages and records for this station are not official NWS values.
T = Trace of Precipitation, MM = Missing Value Source: Averaged Metar Reports

Daily Weather History Graph

Daily Weather History Graph

Search for Another Location

Airport or City:

Astronomy

Nov. 15, 2017 Rise Set
Actual Time 8:06 AM MSK 4:22 PM MSK
Civil Twilight 7:24 AM MSK 5:04 PM MSK
Nautical Twilight 6:38 AM MSK 5:50 PM MSK
Astronomical Twilight 5:54 AM MSK 6:33 PM MSK
Moon 3:59 AM MSK (11/15) 3:48 PM MSK (11/15)
Length of Visible Light 9h 40m
Length of Day
8h 15m
Waning Crescent, 9% of the Moon is Illuminated
Nov 15
Waning Crescent
Nov 18
New
Nov 26
First Quarter
Dec 3
Full
Dec 10
Last Quarter

Hourly Weather History & Observations

Time (MSK) Temp. Windchill Dew Point Humidity Pressure Visibility Wind Dir Wind Speed Gust Speed Precip Events Conditions
12:00 AM 33.8 °F 25.4 °F 30.2 °F 87% 29.98 in 6.2 mi WSW 11.2 mph - N/A   Overcast
12:30 AM 33.8 °F 24.5 °F 30.2 °F 87% 29.98 in 6.2 mi WSW 13.4 mph - N/A   Overcast
1:00 AM 33.8 °F 25.4 °F 32.0 °F 93% 29.98 in 6.2 mi WSW 11.2 mph - N/A   Overcast
1:30 AM 33.8 °F 25.4 °F 32.0 °F 93% 30.01 in 6.2 mi WSW 11.2 mph - N/A   Overcast
2:00 AM 33.8 °F 24.5 °F 32.0 °F 93% 30.01 in 6.2 mi SW 13.4 mph - N/A   Overcast
2:30 AM 33.8 °F 25.4 °F 32.0 °F 93% 30.01 in 6.2 mi WSW 11.2 mph - N/A   Overcast
3:00 AM 33.8 °F 26.5 °F 32.0 °F 93% 30.01 in 6.2 mi WSW 8.9 mph - N/A   Overcast
3:30 AM 32.0 °F 24.3 °F 32.0 °F 100% 30.01 in 6.2 mi WSW 8.9 mph - N/A   Overcast
4:00 AM 33.8 °F 25.4 °F 32.0 °F 93% 30.04 in 6.2 mi WSW 11.2 mph - N/A   Overcast
4:30 AM 33.8 °F 26.5 °F 32.0 °F 93% 30.04 in 6.2 mi SW 8.9 mph - N/A   Overcast
5:00 AM 33.8 °F 26.5 °F 32.0 °F 93% 30.04 in 6.2 mi SW 8.9 mph - N/A   Overcast
5:30 AM 33.8 °F 25.4 °F 32.0 °F 93% 30.04 in 6.2 mi SW 11.2 mph 22.4 mph N/A   Overcast
6:00 AM 32.0 °F 25.7 °F 32.0 °F 100% 30.04 in 6.2 mi South 6.7 mph - N/A   Overcast
6:30 AM 32.0 °F 24.3 °F 32.0 °F 100% 30.04 in 6.2 mi SSW 8.9 mph - N/A   Overcast
7:00 AM 32.0 °F 23.2 °F 32.0 °F 100% 30.04 in 6.2 mi SW 11.2 mph - N/A   Overcast
7:30 AM 32.0 °F 23.2 °F 32.0 °F 100% 30.04 in 6.2 mi WSW 11.2 mph - N/A   Overcast
8:00 AM 33.8 °F 24.5 °F 32.0 °F 93% 30.04 in 6.2 mi WSW 13.4 mph - N/A   Overcast
8:30 AM 33.8 °F 25.4 °F 32.0 °F 93% 30.04 in 6.2 mi SW 11.2 mph - N/A   Overcast
9:00 AM 33.8 °F 25.4 °F 32.0 °F 93% 30.06 in 6.2 mi SSW 11.2 mph - N/A Snow Light Snow
9:30 AM 33.8 °F 25.4 °F 32.0 °F 93% 30.06 in 6.2 mi SSW 11.2 mph - N/A Snow Light Snow Showers
10:00 AM 33.8 °F 25.4 °F 32.0 °F 93% 30.06 in 6.2 mi SW 11.2 mph - N/A   Scattered Clouds
10:30 AM 33.8 °F 24.5 °F 32.0 °F 93% 30.06 in 6.2 mi SSW 13.4 mph - N/A   Scattered Clouds
11:00 AM 33.8 °F 25.4 °F 32.0 °F 93% 30.06 in 6.2 mi SSW 11.2 mph - N/A   Scattered Clouds
11:30 AM 33.8 °F 25.4 °F 32.0 °F 93% 30.06 in 6.2 mi SSW 11.2 mph - N/A   Scattered Clouds
12:00 PM 33.8 °F 24.5 °F 30.2 °F 87% 30.06 in 6.2 mi SW 13.4 mph - N/A   Scattered Clouds
12:30 PM 33.8 °F 24.5 °F 30.2 °F 87% 30.06 in 6.2 mi SW 13.4 mph - N/A   Mostly Cloudy
1:00 PM 33.8 °F 25.4 °F 32.0 °F 93% 30.06 in 5.6 mi SW 11.2 mph - N/A Snow Light Snow Showers
1:30 PM 33.8 °F 25.4 °F 32.0 °F 93% 30.06 in 4.3 mi SW 11.2 mph - N/A Snow Light Snow Showers
2:00 PM 33.8 °F 26.5 °F 32.0 °F 93% 30.06 in 5.6 mi SSW 8.9 mph - N/A Snow Light Snow Showers
2:30 PM 33.8 °F 26.5 °F 32.0 °F 93% 30.06 in 6.2 mi SSW 8.9 mph - N/A Snow Light Snow Showers
3:00 PM 33.8 °F 26.5 °F 32.0 °F 93% 30.06 in 5.6 mi SSW 8.9 mph - N/A Snow Light Snow Showers
3:30 PM 33.8 °F 25.4 °F 32.0 °F 93% 30.06 in 5.6 mi SSW 11.2 mph - N/A Snow Light Snow Showers
4:00 PM 33.8 °F 26.5 °F 32.0 °F 93% 30.04 in 5.0 mi SSW 8.9 mph - N/A Snow Light Snow Showers
4:30 PM 33.8 °F 26.5 °F 32.0 °F 93% 30.04 in 4.3 mi SSW 8.9 mph - N/A Snow Light Snow
5:00 PM 33.8 °F 26.5 °F 32.0 °F 93% 30.04 in 5.6 mi SSW 8.9 mph - N/A Snow Light Snow
5:30 PM 33.8 °F 26.5 °F 32.0 °F 93% 30.04 in 3.7 mi SSW 8.9 mph - N/A Snow Light Snow
6:00 PM 33.8 °F 26.5 °F 32.0 °F 93% 30.04 in 4.3 mi South 8.9 mph - N/A Snow Light Snow
6:30 PM 33.8 °F 25.4 °F 32.0 °F 93% 30.04 in 5.0 mi SSW 11.2 mph - N/A Snow Light Snow
7:00 PM 33.8 °F 25.4 °F 32.0 °F 93% 30.04 in 1.8 mi SSW 11.2 mph - N/A Snow Light Snow
7:30 PM 33.8 °F 25.4 °F 32.0 °F 93% 30.04 in 3.1 mi SSW 11.2 mph - N/A Snow Light Snow
8:00 PM 33.8 °F 25.4 °F 32.0 °F 93% 30.04 in - SSW 11.2 mph - N/A Snow Light Snow
8:30 PM 33.8 °F 25.4 °F 33.8 °F 100% 30.01 in 4.3 mi SSW 11.2 mph 22.4 mph N/A Snow Light Snow
9:00 PM 33.8 °F 25.4 °F 32.0 °F 93% 30.01 in 5.6 mi SSW 11.2 mph 22.4 mph N/A Snow Light Snow
9:30 PM 33.8 °F 25.4 °F 32.0 °F 93% 30.01 in - SSW 11.2 mph - N/A Snow Light Snow
10:00 PM 33.8 °F 25.4 °F 32.0 °F 93% 30.01 in 3.1 mi SSW 11.2 mph - N/A Snow Light Snow
10:30 PM 33.8 °F 25.4 °F 32.0 °F 93% 30.01 in 3.7 mi SSW 11.2 mph - N/A Snow Light Snow
11:00 PM 33.8 °F 25.4 °F 32.0 °F 93% 30.01 in 5.0 mi SSW 11.2 mph - N/A Snow Light Snow
11:30 PM 33.8 °F 25.4 °F 32.0 °F 93% 30.01 in 3.7 mi SSW 11.2 mph - N/A Snow Light Snow